Regional Weather Roundup
Issued by NWS Portland, ME

Current Version | Previous Version | Text Only | Print | Product List | Glossary Off
Versions: 1 2 3 4 5 6 7 8 9 10 11 12 13 14 15 16 17 18 19 20 21 22 23 24 25 26 27 28 29 30 31 32 33 34 35 36 37 38 39 40 41 42 43 44 45 46 47 48 49 50
000 ASUS41 KGYX 231110 RWRGYX WEATHER ROUNDUP FOR MAINE AND NEW HAMPSHIRE NATIONAL WEATHER SERVICE GRAY ME 600 AM EST TUE JAN 23 2018 MEZ002-005-006-010-012-015-018-020-021-024-026-027-029-231200- MAINE CITY SKY/WX TMP DP RH WIND PRES REMARKS PORTLAND FRZ DRZL 22 22 100 N10 30.05F WCI 11 SANFORD LGT SNOW 22 21 96 N10 30.03F FOG WCI 11 BAR HARBOR MIX PCPN 32 31 96 E9G18 30.12F WISCASSET CLOUDY 24 24 100 CALM 30.06F FOG ROCKLAND LGT SNOW 30 30 100 NE12 30.06F FOG FRYEBURG CLOUDY 23 23 100 N5 30.05F FOG LEWISTONAUBURN MIX PCPN 20 19 96 MISG 30.06F FOG AUGUSTA CLOUDY 19 18 95 N10 30.07F FOG WCI 7 WATERVILLE MIX PCPN 19 17 92 N13 30.04F FOG WCI 6 BANGOR CLOUDY 19 17 92 N7 30.13F FOG GREENVILLE N/A 18 18 100 SE13G23 29.99F WCI 5 MILLINOCKET LGT SNOW 14 11 87 N5 30.17F FOG HOULTON SNOW 14 10 84 VRB5 30.17F VSB 1/2 PRESQUE ISLE SNOW 12 9 87 E6 30.19F VSB 1/2 FRENCHVILLE SNOW 6 3 87 E7 30.15F VSB 1/2 CARIBOU SNOW 11 6 81 E5 30.18F VSB 1/2 $$ NHZ002-005-008-009-011-012-014-231200- NEW HAMPSHIRE CITY SKY/WX TMP DP RH WIND PRES REMARKS PORTSMOUTH FRZ DRZL 25 24 95 N3 30.00F FOG ROCHESTER CLOUDY 24 24 100 N8 30.00F FOG NASHUA LGT SNOW 28 27 96 N5 30.01F FOG MANCHESTER FRZ RAIN 27 26 96 VRB3 29.99F VSB 3/4 CONCORD CLOUDY 27 25 92 NE7 29.99F FOG LACONIA LGT SNOW 25 23 92 E13 29.99F FOG WCI 14 PLYMOUTH CLOUDY 27 25 95 CALM 29.98F FOG BERLIN CLOUDY 32 27 81 S13G22 29.94F WHITEFIELD CLOUDY 36 32 85 NW8 29.88F JAFFREY CLOUDY 28 28 100 VRB6 29.92F FOG KEENE MIX PCPN 31 30 96 NW5 29.93F FOG LEBANON CLOUDY 31 29 92 CALM 29.92F MT WASHINGTON FRZ RAIN 30 30 100 S59G71 N/A VSB 0 WCI 11 $$ VTZ005-007-008-231200- VERMONT CITY SKY/WX TMP DP RH WIND PRES REMARKS ST JOHNSBURY N/A 32 31 96 MISG 29.88F MONTPELIER CLOUDY 31 31 100 S9 29.89F BURLINGTON CLOUDY 37 32 82 CALM 29.78F $$ MAZ007-012-024-CTZ003-RIZ002-NYZ038-NYZ072-231200- SOUTHERN NEW ENGLAND AND NY CITY SKY/WX TMP DP RH WIND PRES REMARKS BOSTON FOG 32 32 100 N6 29.98F VSB 1/2 WORCESTER FOG 28 26 92 NE7 29.91F VSB 1/4 NANTUCKET CLOUDY 45 45 100 SE21 29.99F PROVIDENCE FOG 38 38 100 N5 29.95F VSB 1/4 HARTFORD DRZL/FOG 33 33 100 N3 29.93F VSB 1/4 ALBANY CLOUDY 39 36 89 S9 29.81F NEW YORK CITY FOG 37 36 96 E7 29.84F VSB<1/4 $$ ANZ081-ANZ082-ANZ150-NHZ014-MEZ023>029-231200- COASTAL MARINE OBSERVATIONS STATION/POSITION TIME TEMP WIND PRES WAVE AIR SEA DIR/SP/G HT/PER (UTC) (F) (DEG/KT/KT) (MB) (FT/S) MOUNT DESERT ROC 1100 41 80/ 28/ 31 1017.9F MATINICUS ROCK 1000 42 100/ 22/ 25 1017.4F ISLE OF SHOALS 1000 28 20/ 3/ 4 1016.3F JEFFREYS LEDGE 1036 43 N/A 6/ 7 GEORGES BANK BUO 0950 44 51 1026.6 4/ 8 $$ .............KEY.............. WCI - WIND CHILL TC - TEMPERATURE IN CELSIUS VSB - VISIBILITY IN MILES HX - HEAT INDEX FAIR- INDICATES FEW OR NO CLOUDS BELOW 12,000 FT, WITH NO SIGNIFICANT WEATHER AND/OR OBSTRUCTIONS TO VISIBILITY.

USA.gov is the U.S. government's official web portal to all federal, state and local government web resources and services.